Вернуться в каталог

OPS 1127

DMSP 4B F3

АктивенПогодаSSO
NORAD 4047·PAYLOAD·🇺🇸 United States

Запущен Jul 23, 1969 с Vandenberg Space Force Base

Loading…

Ближайшие Пролёты (ближайшие 24 часа)

TLE

СвежийSource: Space-Track

Эпоха: Sep 14, 2026, 12:23 UTC

1 04047U 69062A   26257.51603446  .00000044  00000-0  33244-4 0  9997
2 04047  98.4123 109.8787 0043840 352.6129   7.4403 14.29534192974098

Отслеживайте OPS 1127 в реальном времени с AllMySat

Download on the App Store